Search for airport 
image banner adimage banner ad
image banner ad

EVAD - Adazi

Located in Adazi, Latvia

ICAO - EVAD, IATA -

Data provided by Airmate  

General information

Coordinates: N57°5'55" E24°15'60"
Elevation is 8 feet MSL.
Magnetic variation is 5° East
Rated:
View ratings: [VIEW]


View others Airports in Riga District

Operational data

Open for public use
Current time UTC:
Current local time:
Weather at : EVRA - Riga ( 26 km )
METAR: EVRA 260520Z 35005KT CAVOK 12/10 Q1031 NOSIG
TAF: TAF EVRA 260200Z 2603/2703 VRB02KT 8000 SCT015 TEMPO 2603/2606 0700 FG BKN001 BECMG 2607/2609 34007KT TEMPO 2620/2703 3000 BR PROB40 2620/2703 0700 FG VV001
View NOTAMs / SUP AIP / TFR affecting this airport [VIEW]
Communications frequencies: [VIEW]

Runways:

RWY identifierQFULength (ft)Width (ft)SurfaceLDA (ft)
15155°193649ASP+GRS1667
33335°193649ASP+GRS1568

Airport contact information

Address: Adazi Latvia

Other aviation service providers

Flight schools

Tmg

Tmg
info@tmg-ato.com+37129259085

Aviation club (not for profit)

First Fly

First Fly

Satellite view of EVAD